STARLINK-1176 (45090 NORAD) Tracking and Keplerian Element Data

This shows tracking and keplerian element data for the satellite.

Feedback or suggestion? Click here.




ElementValue
Catalog45090
NameSTARLINK-1176
Epoch Orbit922
Epoch Day87.91667824
Epoch Year2020
RAAN304.1294
Inclination53.0024
Eccentricity0.0001454
Argument of Perigee58.0125
Mean Anonmoly333.1241
Mean Motion15.62768045
Decay Rate-8.549E-05
L11 45090U 20006AY 20087.91667824 -.00008549 00000-0 -87567-4 0 9991
L22 45090 53.0024 304.1294 0001454 58.0125 333.1241 15.62768045 9226

Live tracking and technical data element details for STARLINK-1176 (NORAD 45090). STARLINK-1176 can be tracked NOW for your location showing map with azimuth and elevation plus other details from your city location.

Track the satellite on the map from your city or location and see movement details for azimuth, elevation, latitude, longitude, range, height, and movement on the map or in text.







IsCatalogInMostPopularTable: catalog: 45090, numindb: 10
Update: records affected: 1



GetName: 45090 STARLINK-1176

Hit Count: updated at: Sat, 28 Mar 2020 21:39:05 GMT